Temp
21 21 21 21 22 22 22 22 23 23 23 23 23 22 22 21 21 21 21 20 20 20 20 20 20 20 20 20 20 20 20 20 19 19 19 19 19 19 19 19 19 19 19 19 20 20 20 19 19 19 19 19 19 19 19 19 19 19 19 19 19 19 19
20 21 21 21 22 22 22 23 23 23 23 23 23 22 22 22 22 21 21 21 20 20 20 20 20 20 20 20 20 20 20 20 19 19 19 19 19 19 19 19 19 19 19 19 19 19 19 19 19 19 19 19 19 19 19 19 19 19 19 19 19 19 19
21 20 21 21 22 22 22 22 22 23 23 23 23 22 22 22 22 22 22 21 21 20 20 20 20 21 21 20 20 20 20 20 19 19 19 19 19 19 19 19 19 19 19 19 19 19 19 19 19 19 19 19 19 19 19 19 19 19 19 19 19 19 19
21 21 21 22 22 22 22 22 23 23 23 23 23 23 23 23 23 22 22 22 21 21 21 21 21 21 21 21 21 20 20 20 20 19 19 19 19 19 19 19 19 19 19 19 19 19 19 19 19 19 19 19 19 19 19 19 19 19 19 19 19 19 19
20 21 21 21 22 22 22 22 23 23 23 23 23 23 23 23 23 22 22 22 22 21 21 21 20 20 21 21 21 21 21 20 20 19 19 19 19 19 19 19 19 19 19 19 19 19 19 19 19 19 19 19 19 19 19 19 19 19 19 19 19 19 19
20 20 20 21 21 22 22 22 23 23 23 23 23 23 23 23 23 22 22 22 22 21 21 21 20 20 21 21 21 21 21 21 20 20 19 19 19 19 19 19 19 19 19 19 19 19 19 19 19 19 19 19 19 19 19 19 19 19 19 19 19 19 19
20 20 20 21 21 21 22 22 22 23 23 23 23 23 23 23 23 23 22 22 22 22 21 21 21 20 21 21 21 21 21 21 20 20 20 20 19 19 19 19 20 19 19 19 19 19 19 19 19 19 19 19 19 19 19 19 19 19 19 19 19 19 19
20 20 20 21 21 21 22 22 22 22 22 23 23 23 23 23 23 23 23 23 22 22 22 21 21 21 20 20 21 21 21 21 21 20 20 20 19 19 19 19 20 20 19 19 19 19 19 19 19 19 19 19 19 19 19 19 19 19 19 19 19 19 19
20 20 20 20 21 21 22 22 22 22 22 22 23 23 23 23 23 23 23 23 23 22 22 22 21 21 21 20 21 21 21 21 21 20 20 20 19 19 19 19 20 19 19 19 19 19 19 19 19 19 19 19 19 19 19 19 19 19 19 19 19 19 19
20 20 20 20 20 21 21 21 21 22 22 22 22 23 23 23 23 23 23 23 22 22 22 22 21 21 21 21 21 21 21 21 21 20 20 20 20 20 19 19 19 19 19 19 19 19 19 19 19 19 19 19 19 19 19 19 19 19 18 19 19 19 19
20 20 20 20 20 20 20 21 21 21 21 21 21 21 21 21 21 22 22 22 22 22 22 22 22 21 21 21 21 21 21 21 21 20 20 20 20 20 20 19 19 19 19 19 19 19 19 19 19 19 19 19 19 19 19 19 19 19 18 18 19 19 19
19 19 19 20 20 20 20 20 20 20 20 21 20 20 20 20 20 20 20 21 21 22 22 22 22 21 21 20 20 20 20 20 20 20 20 20 20 20 20 20 20 20 20 20 20 20 19 19 19 19 19 19 19 19 19 19 19 19 18 18 18 19 19
17 18 18 18 19 19 20 20 20 20 21 21 21 21 21 21 21 21 20 20 19 19 20 21 22 22 21 21 21 20 20 20 20 20 20 20 20 20 20 20 20 20 20 20 20 19 19 19 19 20 20 19 19 19 19 19 19 19 19 19 18 18 19
17 17 17 18 18 19 19 20 20 20 21 21 21 21 21 21 21 21 21 21 20 20 20 19 20 20 21 21 21 21 21 21 20 20 20 20 20 20 20 20 20 20 20 19 19 19 19 19 19 19 19 19 19 19 19 19 19 19 19 19 19 18 19
17 17 18 18 18 19 19 19 20 20 20 20 21 21 21 21 21 21 21 21 21 21 21 20 19 19 20 20 21 21 21 21 21 20 20 20 20 20 20 20 20 20 20 20 20 19 19 19 19 19 19 19 19 19 19 19 19 19 19 19 19 18 18
17 17 18 18 18 18 19 19 19 19 19 20 20 20 20 21 21 21 20 20 20 21 21 21 20 19 19 19 20 21 21 21 21 21 20 20 20 20 20 20 20 20 20 20 20 20 20 20 19 19 19 19 19 19 19 19 19 19 19 19 19 18 18
16 16 16 16 17 17 18 18 18 18 18 19 19 19 19 19 20 20 20 19 19 19 20 20 20 20 19 19 19 19 20 20 21 20 20 20 21 20 20 20 20 20 20 20 20 20 20 20 20 19 19 19 19 19 19 19 19 19 19 19 19 19 19
16 16 16 16 16 17 17 17 17 18 18 18 18 18 18 19 19 19 19 19 19 19 19 19 19 19 20 20 19 19 18 19 19 20 20 20 20 20 20 20 20 20 20 20 20 20 20 20 20 20 19 19 19 19 20 20 20 20 19 20 19 19 19
15 15 15 15 16 16 17 17 17 18 17 17 17 17 17 18 18 18 18 18 18 18 18 18 19 18 18 19 19 19 18 18 18 19 19 20 20 20 20 20 20 20 20 20 20 20 20 20 20 20 20 20 20 20 20 20 20 20 20 20 20 19 19
15 15 15 15 15 16 16 16 17 17 17 17 17 17 17 17 17 17 17 17 17 17 17 18 18 18 18 18 18 18 18 18 19 19 19 19 20 19 19 19 20 20 20 20 20 20 20 20 19 19 20 20 20 20 20 20 20 20 20 20 20 20 20
15 15 15 15 15 15 15 16 16 16 16 16 17 17 17 17 17 17 16 16 16 16 17 17 17 17 18 18 18 18 18 18 18 18 18 18 18 18 18 19 19 19 19 19 19 19 19 19 19 19 20 20 20 20 20 20 20 20 20 20 20 20 20
15 15 15 15 15 15 15 15 15 15 16 16 16 16 16 17 16 16 16 16 16 16 16 17 17 17 17 17 18 18 18 18 18 18 18 18 18 18 18 18 18 19 19 19 19 19 19 19 19 19 20 20 20 20 20 20 20 20 20 21 20 20 20
15 15 15 15 15 14 14 15 15 15 15 15 16 16 16 16 16 16 16 16 16 16 16 16 16 17 17 17 17 18 18 18 18 18 18 17 17 17 17 17 17 17 18 19 19 19 19 19 19 19 19 20 20 20 20 20 20 20 20 20 20 20 20
15 15 15 14 14 14 14 14 14 14 15 15 15 15 15 16 16 16 16 16 16 16 16 16 16 16 16 17 17 17 17 17 18 18 17 17 17 17 16 17 17 17 17 18 18 18 18 19 19 19 19 19 19 19 19 20 20 20 20 20 20 20 20
15 15 14 14 14 14 14 14 15 15 15 15 15 15 15 15 15 15 16 16 16 16 16 16 16 16 16 16 16 16 16 16 17 17 17 17 17 17 17 17 17 17 17 17 17 17 17 17 18 18 18 18 19 19 19 19 19 19 19 19 20 20 20
15 14 14 14 14 14 14 14 14 14 14 14 14 14 14 15 15 15 15 15 15 15 15 15 15 15 15 15 15 16 16 16 16 16 17 17 17 17 16 16 16 17 17 17 17 17 16 17 17 18 18 18 18 18 19 19 18 19 19 19 19 19 19
14 14 14 14 14 14 14 14 14 14 14 14 14 14 14 14 15 14 14 14 14 14 14 14 14 14 14 15 15 15 15 15 15 16 16 16 16 16 16 16 16 16 17 17 17 17 17 17 17 18 18 18 18 18 18 18 17 18 18 18 18 18 18
14 14 14 14 14 15 15 14 14 14 14 14 14 14 14 15 14 14 13 13 13 13 13 13 13 13 13 14 14 14 14 14 15 15 15 15 16 16 15 15 16 16 17 17 17 17 17 17 17 17 17 17 17 17 17 17 17 17 17 17 17 17 17
14 14 14 14 14 14 15 15 15 14 14 14 14 14 14 14 14 14 13 13 13 13 13 12 12 13 13 13 13 13 14 14 14 14 14 14 15 15 15 15 15 15 16 16 16 16 16 16 16 16 16 16 16 16 16 16 16 16 16 16 16 16 16
14 14 14 14 14 14 14 14 14 14 14 14 14 14 14 14 14 14 14 14 13 13 13 13 13 13 13 13 13 13 13 13 13 13 13 14 14 14 14 14 14 14 15 15 15 15 15 15 15 15 15 15 15 15 15 15 15 15 15 15 15 15 15
14 14 14 14 14 14 14 14 14 13 14 13 13 13 14 14 14 14 14 14 14 13 13 13 13 13 12 13 13 13 13 13 13 13 13 13 14 14 14 14 14 14 15 15 15 15 15 14 14 14 14 14 14 14 14 15 15 15 15 15 15 15 15
14 14 14 14 14 14 14 14 14 13 13 13 13 13 13 13 13 13 13 13 13 13 13 13 13 13 13 13 13 13 13 13 13 13 14 14 14 14 14 14 14 14 14 14 14 14 14 14 14 13 13 14 14 14 14 14 14 14 14 14 15 15 15
14 14 14 14 14 14 14 14 14 14 14 14 14 14 14 14 14 13 13 13 13 13 13 14 13 13 13 13 13 13 13 13 13 13 14 14 13 13 13 13 14 14 14 14 14 13 13 13 13 13 13 13 13 14 13 13 13 13 13 14 14 14 15
15 14 14 14 14 14 14 14 14 14 14 14 14 15 15 14 14 14 14 14 13 13 14 14 14 14 14 13 14 14 13 13 13 13 14 14 13 13 13 13 13 13 13 13 13 13 13 13 13 13 13 13 13 13 13 13 13 13 13 14 14 14 14
14 14 14 14 14 14 14 14 14 14 14 14 14 15 15 15 15 15 15 14 14 14 14 14 14 14 14 14 14 13 13 13 13 13 13 13 13 13 14 13 13 13 13 13 13 13 13 13 13 13 13 13 13 13 13 13 13 14 14 14 14 14 14
14 14 14 14 14 14 14 14 14 14 14 14 14 14 14 14 14 15 15 15 15 14 14 14 14 14 14 13 13 13 13 13 13 13 13 13 13 13 13 13 13 13 13 13 13 13 13 13 13 14 14 14 14 14 14 14 14 14 15 15 15 15 15
14 14 14 14 13 14 14 13 13 13 13 13 13 14 14 14 14 14 14 14 15 15 15 15 14 14 13 13 13 13 12 12 12 12 12 12 12 13 13 13 13 13 13 13 13 13 13 13 13 14 14 14 14 14 14 15 15 15 15 15 15 15 15
14 14 13 13 13 13 13 13 13 13 13 13 13 13 13 13 14 14 14 14 14 14 14 14 14 14 14 13 13 13 12 12 12 12 12 12 12 12 12 12 12 13 13 12 12 12 12 13 13 13 13 13 14 14 14 14 15 15 15 15 15 15 15
Height
1515 1519 1522 1525 1528 1530 1532 1535 1538 1540 1543 1545 1548 1550 1552 1554 1556 1558 1560 1562 1564 1565 1567 1569 1571 1573 1574 1576 1577 1579 1580 1582 1583 1585 1586 1587 1588 1589 1590 1591 1592 1593 1594 1595 1596 1596 1597 1598 1599 1599 1600 1600 1601 1601 1602 1602 1603 1603 1604 1604 1605 1605 1606
1513 1516 1519 1522 1525 1528 1530 1533 1536 1538 1541 1543 1546 1548 1550 1552 1554 1557 1559 1561 1562 1564 1566 1568 1570 1571 1573 1574 1576 1577 1579 1580 1582 1583 1584 1585 1587 1588 1589 1590 1591 1592 1593 1593 1594 1595 1596 1597 1597 1598 1599 1599 1600 1600 1601 1601 1602 1602 1603 1604 1604 1605 1605
1510 1514 1516 1520 1522 1525 1528 1530 1533 1536 1539 1541 1543 1546 1548 1550 1553 1555 1557 1559 1561 1563 1564 1566 1568 1570 1571 1573 1574 1576 1577 1579 1580 1581 1583 1584 1585 1587 1588 1589 1590 1591 1591 1592 1593 1594 1595 1596 1596 1597 1598 1598 1599 1600 1600 1600 1601 1602 1602 1603 1603 1603 1604
1507 1510 1515 1518 1520 1523 1526 1528 1531 1534 1537 1539 1541 1544 1546 1549 1551 1553 1555 1557 1559 1561 1562 1564 1566 1568 1570 1571 1573 1574 1576 1577 1579 1580 1581 1583 1584 1585 1586 1587 1588 1589 1590 1591 1592 1593 1593 1594 1595 1596 1596 1597 1598 1598 1599 1599 1600 1600 1601 1601 1602 1602 1603
1507 1509 1513 1516 1518 1521 1524 1526 1529 1531 1535 1537 1540 1543 1545 1547 1550 1551 1554 1556 1558 1560 1561 1563 1565 1566 1568 1569 1571 1572 1574 1576 1577 1578 1580 1581 1582 1583 1584 1585 1586 1587 1588 1589 1590 1591 1592 1593 1594 1594 1595 1596 1597 1597 1598 1598 1599 1599 1599 1600 1601 1601 1601
1508 1509 1512 1514 1516 1519 1521 1524 1527 1529 1533 1535 1538 1541 1543 1546 1548 1550 1552 1554 1556 1558 1559 1561 1563 1564 1566 1567 1569 1571 1572 1574 1575 1577 1578 1579 1581 1581 1582 1584 1585 1586 1587 1588 1589 1589 1590 1591 1592 1593 1594 1595 1595 1596 1596 1597 1597 1598 1598 1599 1599 1599 1600
1507 1509 1511 1513 1516 1518 1520 1523 1526 1528 1532 1534 1536 1539 1542 1544 1546 1548 1550 1552 1554 1556 1557 1559 1561 1562 1564 1565 1567 1569 1570 1572 1573 1575 1577 1578 1579 1580 1581 1582 1583 1584 1585 1586 1587 1588 1589 1590 1590 1591 1592 1593 1594 1594 1595 1595 1596 1596 1597 1597 1597 1598 1598
1507 1509 1511 1513 1515 1518 1520 1523 1525 1528 1530 1533 1535 1537 1539 1541 1543 1545 1547 1549 1552 1553 1555 1557 1558 1560 1562 1563 1565 1567 1568 1570 1571 1573 1575 1576 1577 1578 1579 1580 1581 1582 1583 1584 1585 1586 1587 1588 1589 1589 1590 1591 1592 1592 1593 1594 1594 1595 1595 1596 1596 1596 1597
1506 1508 1511 1513 1515 1518 1520 1523 1525 1527 1529 1532 1533 1535 1537 1539 1540 1542 1544 1546 1549 1551 1553 1555 1557 1558 1560 1561 1563 1565 1566 1568 1569 1571 1573 1574 1575 1576 1577 1578 1579 1580 1581 1582 1583 1584 1585 1586 1587 1587 1588 1589 1590 1590 1591 1592 1592 1593 1593 1594 1594 1595 1595
1506 1508 1511 1513 1515 1517 1520 1522 1524 1526 1529 1530 1532 1534 1536 1537 1538 1540 1542 1544 1546 1548 1551 1553 1555 1556 1558 1559 1560 1562 1564 1565 1567 1569 1570 1572 1573 1574 1576 1577 1577 1578 1579 1580 1581 1582 1583 1584 1584 1585 1586 1587 1588 1588 1589 1590 1590 1591 1592 1592 1592 1593 1593
1507 1509 1511 1513 1515 1517 1520 1522 1523 1525 1526 1528 1530 1533 1534 1536 1538 1539 1540 1542 1544 1546 1549 1551 1553 1554 1555 1557 1558 1559 1561 1563 1564 1566 1567 1569 1571 1572 1574 1575 1575 1576 1577 1578 1579 1580 1581 1582 1582 1583 1584 1585 1586 1586 1587 1588 1588 1589 1590 1590 1590 1591 1591
1508 1509 1512 1513 1514 1516 1518 1520 1521 1523 1524 1526 1528 1529 1532 1535 1537 1538 1539 1542 1543 1544 1546 1548 1550 1552 1553 1554 1556 1557 1559 1560 1562 1563 1565 1567 1568 1570 1571 1572 1573 1573 1574 1575 1576 1577 1578 1579 1580 1581 1582 1583 1584 1584 1585 1586 1587 1587 1588 1588 1588 1589 1589
1508 1509 1511 1512 1513 1514 1516 1517 1519 1520 1521 1523 1524 1525 1527 1530 1532 1535 1538 1541 1543 1544 1546 1547 1548 1549 1550 1551 1552 1554 1555 1557 1559 1561 1562 1564 1566 1567 1568 1569 1570 1571 1572 1572 1573 1574 1575 1576 1577 1578 1579 1580 1581 1582 1583 1584 1584 1585 1585 1586 1586 1587 1587
1510 1511 1512 1513 1513 1514 1515 1517 1518 1519 1520 1521 1522 1523 1525 1527 1528 1530 1533 1536 1539 1543 1544 1546 1547 1547 1548 1548 1549 1551 1552 1554 1556 1558 1560 1561 1563 1564 1565 1566 1568 1569 1570 1571 1571 1572 1573 1574 1575 1576 1577 1578 1579 1580 1581 1581 1582 1583 1583 1584 1584 1585 1585
1510 1511 1512 1513 1514 1514 1515 1516 1517 1518 1519 1520 1521 1522 1523 1525 1526 1527 1529 1531 1534 1537 1540 1542 1544 1545 1546 1546 1547 1548 1549 1551 1553 1555 1557 1558 1560 1561 1562 1564 1565 1566 1568 1569 1570 1571 1572 1572 1573 1574 1574 1575 1576 1578 1578 1579 1580 1580 1581 1582 1582 1583 1584
1511 1512 1512 1513 1513 1514 1514 1515 1516 1517 1518 1519 1520 1521 1521 1523 1524 1525 1526 1527 1530 1533 1535 1538 1539 1541 1543 1545 1546 1546 1547 1548 1550 1552 1554 1555 1557 1558 1560 1561 1563 1564 1566 1567 1568 1569 1570 1570 1571 1572 1573 1573 1574 1575 1576 1577 1578 1578 1579 1580 1580 1581 1582
1512 1513 1513 1513 1513 1513 1513 1514 1515 1515 1516 1517 1518 1518 1519 1520 1521 1523 1524 1525 1526 1529 1531 1534 1536 1538 1540 1542 1544 1544 1545 1545 1547 1549 1551 1552 1554 1556 1557 1559 1561 1562 1564 1565 1566 1567 1568 1568 1569 1570 1571 1571 1572 1573 1574 1575 1576 1576 1577 1577 1578 1579 1580
1514 1514 1514 1514 1513 1512 1512 1513 1513 1514 1515 1516 1516 1517 1517 1518 1519 1520 1521 1522 1524 1526 1528 1530 1533 1534 1536 1538 1540 1542 1542 1543 1544 1546 1548 1549 1551 1553 1554 1556 1558 1560 1561 1562 1563 1564 1565 1566 1567 1568 1569 1570 1570 1571 1572 1573 1574 1574 1575 1575 1576 1577 1577
1515 1515 1515 1514 1513 1513 1512 1512 1513 1513 1513 1514 1514 1515 1515 1516 1516 1518 1520 1521 1522 1523 1525 1527 1530 1532 1534 1536 1538 1539 1540 1541 1542 1543 1545 1547 1549 1550 1552 1554 1555 1557 1558 1559 1560 1562 1563 1564 1565 1566 1567 1568 1569 1569 1570 1571 1571 1572 1573 1573 1574 1574 1575
1517 1516 1516 1515 1515 1514 1513 1513 1513 1512 1512 1512 1513 1513 1513 1514 1514 1516 1517 1519 1519 1520 1522 1524 1526 1528 1530 1534 1536 1537 1538 1539 1540 1541 1542 1544 1546 1548 1549 1551 1553 1554 1555 1556 1558 1559 1560 1561 1563 1564 1565 1566 1567 1567 1568 1568 1569 1570 1571 1571 1572 1572 1572
1518 1518 1517 1517 1516 1515 1515 1514 1513 1513 1512 1512 1512 1512 1512 1512 1513 1514 1515 1516 1517 1518 1519 1520 1522 1523 1525 1529 1531 1533 1535 1537 1537 1538 1540 1542 1544 1546 1547 1549 1550 1551 1552 1553 1555 1556 1557 1558 1560 1561 1562 1564 1564 1565 1565 1565 1567 1568 1569 1569 1570 1570 1570
1519 1519 1519 1519 1518 1517 1516 1515 1514 1514 1513 1512 1512 1512 1511 1511 1511 1512 1512 1513 1515 1515 1516 1517 1518 1520 1522 1524 1526 1529 1532 1533 1534 1536 1538 1541 1543 1545 1546 1547 1547 1548 1549 1551 1552 1553 1554 1555 1556 1558 1559 1561 1562 1562 1563 1564 1565 1565 1566 1567 1568 1568 1568
1520 1520 1521 1521 1520 1519 1518 1517 1516 1515 1514 1513 1512 1512 1511 1510 1510 1510 1511 1512 1513 1514 1514 1515 1516 1517 1519 1521 1523 1526 1529 1530 1531 1534 1537 1539 1541 1543 1545 1546 1546 1546 1547 1548 1549 1550 1552 1552 1553 1555 1556 1558 1559 1560 1560 1561 1562 1563 1564 1564 1565 1565 1566
1522 1522 1523 1522 1522 1521 1520 1519 1517 1516 1515 1514 1513 1512 1511 1510 1509 1510 1510 1511 1512 1513 1514 1515 1515 1516 1517 1519 1521 1524 1526 1528 1529 1531 1535 1537 1538 1541 1543 1545 1546 1547 1547 1547 1547 1548 1549 1549 1550 1552 1554 1555 1556 1557 1558 1558 1559 1560 1561 1561 1562 1563 1563
1524 1524 1524 1524 1523 1522 1522 1521 1520 1519 1517 1516 1515 1514 1513 1511 1511 1510 1510 1511 1513 1514 1515 1516 1517 1517 1517 1518 1520 1522 1524 1526 1527 1529 1532 1533 1536 1539 1541 1543 1545 1546 1547 1546 1545 1547 1548 1547 1548 1550 1551 1552 1553 1554 1555 1556 1556 1557 1558 1558 1559 1559 1559
1526 1526 1526 1526 1525 1524 1523 1522 1521 1520 1519 1518 1518 1517 1515 1514 1513 1513 1514 1514 1514 1515 1517 1518 1518 1518 1518 1518 1519 1520 1522 1524 1526 1528 1529 1531 1534 1537 1539 1541 1542 1543 1544 1544 1544 1545 1547 1547 1547 1547 1548 1550 1551 1552 1552 1553 1553 1554 1555 1555 1555 1556 1556
1528 1528 1528 1528 1528 1527 1526 1524 1523 1523 1522 1522 1521 1521 1520 1518 1516 1517 1518 1518 1517 1518 1519 1520 1520 1520 1519 1518 1519 1520 1522 1523 1526 1527 1529 1531 1533 1536 1538 1539 1540 1540 1541 1542 1542 1543 1545 1546 1545 1545 1546 1547 1548 1549 1549 1550 1551 1551 1552 1552 1552 1552 1553
1530 1530 1530 1530 1530 1529 1528 1527 1526 1525 1525 1524 1524 1524 1523 1522 1520 1520 1520 1520 1521 1523 1524 1523 1524 1523 1521 1520 1521 1521 1522 1524 1526 1528 1529 1531 1533 1535 1537 1537 1538 1538 1538 1539 1539 1541 1543 1544 1543 1543 1543 1544 1545 1546 1547 1548 1549 1549 1549 1549 1549 1550 1550
1531 1532 1532 1532 1532 1532 1530 1529 1528 1527 1527 1527 1527 1527 1527 1526 1524 1523 1523 1524 1526 1528 1527 1527 1527 1525 1523 1523 1523 1523 1524 1526 1528 1530 1532 1533 1533 1535 1536 1536 1537 1537 1537 1537 1538 1539 1541 1542 1542 1542 1542 1542 1543 1544 1545 1546 1547 1547 1547 1547 1547 1547 1548
1533 1534 1534 1534 1534 1533 1532 1531 1530 1530 1530 1530 1530 1530 1530 1529 1528 1527 1527 1528 1530 1531 1530 1530 1529 1527 1526 1526 1526 1526 1527 1529 1531 1534 1535 1534 1534 1534 1534 1535 1536 1537 1537 1537 1537 1538 1539 1540 1541 1541 1541 1542 1543 1543 1543 1544 1544 1545 1545 1545 1545 1546 1546
1535 1535 1536 1536 1535 1535 1534 1534 1533 1533 1532 1532 1533 1533 1533 1532 1532 1531 1530 1531 1532 1533 1532 1532 1531 1530 1530 1529 1528 1529 1531 1532 1533 1535 1535 1534 1534 1534 1534 1535 1535 1536 1536 1536 1536 1537 1538 1539 1540 1541 1541 1542 1542 1543 1543 1543 1543 1544 1544 1544 1544 1544 1544
1537 1537 1537 1537 1536 1536 1537 1537 1536 1536 1535 1535 1535 1535 1535 1535 1534 1534 1533 1534 1534 1534 1534 1534 1533 1533 1533 1532 1531 1532 1533 1534 1535 1537 1536 1536 1536 1537 1537 1537 1537 1536 1536 1537 1538 1539 1540 1541 1542 1542 1542 1542 1542 1542 1542 1542 1542 1543 1543 1543 1543 1543 1542
1538 1538 1538 1538 1538 1538 1539 1539 1539 1539 1538 1537 1537 1537 1537 1536 1536 1536 1536 1536 1536 1536 1536 1536 1536 1536 1535 1535 1535 1535 1536 1537 1538 1539 1539 1538 1539 1539 1539 1540 1539 1539 1539 1540 1542 1542 1542 1542 1543 1543 1543 1543 1543 1543 1543 1542 1542 1543 1543 1542 1542 1542 1541
1539 1539 1539 1539 1539 1541 1541 1541 1541 1541 1540 1539 1539 1539 1539 1538 1537 1537 1538 1538 1538 1538 1538 1538 1538 1538 1538 1538 1538 1538 1539 1539 1540 1541 1541 1540 1541 1541 1541 1541 1542 1542 1542 1543 1545 1545 1544 1543 1544 1544 1544 1544 1544 1544 1544 1543 1543 1544 1543 1542 1542 1541 1541
1540 1540 1540 1541 1542 1542 1543 1543 1543 1542 1541 1541 1541 1541 1540 1540 1539 1539 1539 1539 1539 1540 1540 1540 1540 1540 1540 1540 1540 1541 1541 1541 1542 1542 1542 1542 1542 1542 1542 1542 1543 1543 1544 1545 1545 1545 1545 1544 1545 1545 1545 1545 1544 1544 1544 1544 1544 1544 1543 1543 1542 1542 1542
1541 1542 1542 1543 1543 1544 1544 1544 1544 1543 1543 1543 1542 1542 1542 1542 1541 1541 1541 1541 1541 1541 1541 1541 1541 1541 1542 1542 1542 1543 1543 1543 1543 1543 1543 1543 1543 1543 1543 1543 1543 1543 1544 1545 1545 1545 1545 1545 1545 1544 1544 1544 1544 1544 1545 1544 1544 1543 1543 1542 1542 1542 1542
1542 1543 1543 1544 1544 1544 1545 1545 1545 1545 1545 1544 1544 1544 1543 1543 1543 1543 1543 1542 1542 1542 1542 1542 1543 1543 1543 1543 1544 1544 1544 1545 1545 1545 1545 1544 1544 1544 1543 1543 1544 1544 1544 1545 1545 1545 1545 1545 1544 1544 1544 1544 1544 1544 1544 1544 1544 1543 1543 1542 1542 1542 1541
1543 1543 1544 1544 1545 1545 1545 1545 1546 1546 1545 1545 1545 1545 1545 1545 1544 1544 1544 1544 1544 1544 1544 1544 1544 1544 1544 1544 1545 1545 1545 1545 1545 1545 1545 1545 1545 1545 1545 1544 1544 1544 1545 1545 1545 1545 1545 1545 1545 1544 1544 1544 1544 1544 1544 1544 1544 1543 1543 1543 1542 1542 1542
Wind_Speed
33 31 32 34 36 37 37 37 36 35 33 31 30 30 29 27 26 24 23 23 24 24 24 23 22 22 21 21 21 20 20 19 18 17 15 13 11 11 11 10 10 11 11 13 13 12 11 11 11 11 10 10 10 10 9 9 9 9 9 9 8 8 7
29 29 32 34 35 37 38 37 36 36 33 31 30 30 31 29 27 25 24 24 24 24 24 23 22 22 22 21 21 21 21 20 19 17 16 14 13 12 11 10 10 10 10 11 12 12 11 11 11 11 11 11 11 11 11 10 10 10 10 10 9 9 9
27 26 30 34 36 36 37 37 37 36 34 32 32 31 31 30 27 25 24 24 24 25 25 24 22 22 21 22 21 21 21 21 20 19 17 17 15 13 12 11 10 10 10 10 10 11 11 11 11 11 11 12 12 12 12 12 11 11 11 10 10 11 11
31 31 32 34 34 35 36 36 36 36 34 33 32 31 30 28 26 25 24 23 24 25 25 25 24 22 21 21 21 22 22 22 21 19 19 18 17 15 14 13 12 12 11 10 10 11 11 11 11 11 12 12 13 13 14 13 12 11 11 11 11 12 12
27 30 34 34 33 33 35 36 36 35 35 34 33 31 29 27 27 27 26 24 24 24 24 24 24 24 22 21 21 22 22 22 21 20 19 19 18 17 16 15 14 14 13 12 12 12 12 11 12 12 12 13 14 14 14 14 13 12 12 11 12 12 12
23 25 30 33 34 34 35 35 36 35 35 34 34 32 30 29 30 29 27 26 25 24 24 24 25 25 23 21 21 22 22 22 21 20 20 20 19 18 17 17 16 15 14 13 13 13 13 13 13 13 14 14 14 14 14 14 14 13 12 12 13 13 13
24 24 28 29 31 33 34 34 35 34 34 34 33 32 31 31 31 30 29 28 26 26 25 25 25 25 24 23 22 22 22 22 22 21 21 20 19 19 18 18 17 16 15 14 14 14 14 14 14 14 15 15 15 15 15 15 15 14 13 13 13 13 13
24 24 26 27 28 30 31 32 33 34 34 34 34 33 32 32 31 31 31 30 28 27 26 25 25 25 25 24 23 22 22 22 22 22 22 21 20 19 18 18 18 16 15 14 14 14 15 15 15 15 15 16 16 16 16 16 15 15 14 14 14 13 13
23 23 23 25 27 28 28 29 30 32 33 33 33 32 32 32 32 31 32 31 31 29 27 25 25 25 25 25 24 23 23 23 23 22 22 21 21 20 19 18 17 16 16 15 15 15 15 15 15 15 15 15 16 16 16 16 15 15 15 14 14 13 13
19 21 22 22 23 25 26 26 27 29 31 32 32 32 32 33 33 32 33 33 33 31 29 27 26 25 24 25 25 24 24 24 23 23 22 22 21 20 19 18 17 16 16 16 16 16 16 15 15 15 15 15 15 15 15 14 14 14 15 15 15 14 14
15 18 20 21 20 21 23 25 26 27 28 30 31 31 32 33 33 33 34 35 35 34 31 28 27 25 24 25 26 25 25 25 24 23 22 22 21 20 18 18 17 17 17 17 16 16 15 15 15 15 15 15 14 14 14 13 13 14 15 15 15 15 14
11 13 15 18 19 20 22 24 25 26 26 28 29 31 32 32 33 33 34 34 34 35 33 30 27 26 25 26 26 26 26 25 25 24 23 22 21 20 19 18 18 18 18 17 17 16 15 15 15 15 15 14 14 14 14 13 14 15 15 15 16 15 15
9 10 11 13 16 19 21 22 24 24 26 27 29 31 32 32 32 32 33 33 33 33 32 31 30 28 26 26 27 27 26 25 24 24 23 22 21 21 20 19 19 19 18 18 17 16 16 16 16 15 15 15 15 15 15 15 15 15 16 16 16 16 16
8 9 8 9 11 13 16 19 21 23 25 27 29 30 31 31 31 32 33 33 33 32 31 31 31 30 29 28 28 27 26 25 24 23 23 23 22 22 22 21 20 20 19 19 18 17 17 16 16 15 15 15 15 15 15 15 15 16 16 16 16 16 16
8 8 6 6 7 9 12 15 17 19 21 23 26 28 29 30 30 31 32 33 34 33 32 33 33 33 32 31 30 29 27 25 24 23 23 23 24 24 24 23 21 20 20 19 18 18 17 17 16 16 15 15 15 15 15 15 16 15 15 15 16 16 16
7 6 4 3 4 6 8 10 11 13 16 19 22 25 27 29 30 31 32 34 34 33 34 34 34 34 34 32 31 30 28 27 25 23 23 24 24 24 23 23 21 20 20 19 19 19 18 18 18 17 16 15 15 15 15 15 15 15 14 15 16 16 16
7 7 6 4 2 2 5 7 8 9 12 15 19 21 24 26 28 30 32 33 35 35 35 35 35 35 35 34 32 30 29 28 26 24 23 24 24 23 23 23 22 21 20 19 19 20 19 19 19 18 17 16 15 15 15 16 15 15 15 16 15 15 15
8 8 8 6 5 3 1 3 5 6 8 11 14 17 19 22 24 26 29 32 35 35 34 34 35 37 37 37 34 30 28 27 26 24 23 23 24 23 23 23 22 20 20 19 20 20 20 20 20 19 18 17 16 15 15 16 16 15 16 16 15 14 14
9 10 8 7 7 6 4 3 2 3 4 6 9 12 15 17 20 22 24 28 32 34 34 33 34 36 38 39 38 34 29 26 24 23 22 23 24 23 23 23 22 21 20 20 20 21 22 22 21 20 19 17 16 15 15 16 16 15 16 15 15 15 16
11 10 9 9 8 8 7 5 4 3 4 5 6 9 11 14 16 18 20 24 28 31 33 33 33 34 36 37 38 36 31 27 25 24 24 23 23 23 22 22 22 22 22 22 21 21 22 23 22 22 20 18 17 16 16 17 17 17 17 17 17 17 18
11 10 11 11 10 10 9 8 6 5 4 4 4 5 8 11 13 16 18 21 24 28 30 31 31 33 34 35 36 36 32 28 26 26 26 25 23 23 22 22 22 22 22 22 22 22 22 22 22 23 22 20 19 18 18 18 18 18 18 19 19 19 19
11 12 13 13 12 12 10 8 7 6 5 5 5 6 7 8 10 12 15 17 20 24 27 29 30 30 31 33 36 36 34 31 27 24 24 23 21 21 21 21 22 22 21 20 21 21 22 21 21 22 22 21 20 20 20 19 19 19 19 20 20 20 20
14 16 16 16 15 15 14 13 10 7 5 5 5 6 9 10 8 9 12 15 19 22 25 28 30 29 28 28 29 30 31 30 27 24 23 22 20 21 20 19 19 19 19 18 18 19 21 21 20 20 19 19 19 19 19 20 20 20 21 21 22 22 21
18 18 17 16 16 15 15 15 15 13 11 8 7 7 7 8 7 6 8 11 16 20 23 26 27 25 23 22 22 23 24 23 22 21 20 18 17 18 18 17 17 16 16 16 16 17 18 18 18 17 16 17 18 18 19 20 21 22 23 23 23 23 23
18 17 16 16 15 14 14 14 13 14 15 15 15 14 12 10 6 2 5 7 11 14 15 17 19 18 18 18 18 17 16 13 13 14 14 14 14 15 15 16 17 17 17 16 14 14 15 16 15 15 16 17 18 19 20 21 23 24 24 24 24 24 24
17 17 18 19 18 16 15 15 16 18 19 20 20 18 15 13 13 13 13 11 11 11 9 9 10 11 12 13 14 15 14 11 9 10 10 10 11 13 13 14 15 15 16 15 13 11 12 13 14 15 16 18 19 20 21 22 23 23 24 24 24 24 25
16 17 19 20 20 19 19 20 21 21 21 21 20 20 18 18 21 25 25 23 22 21 18 17 16 15 15 14 13 12 10 7 5 6 8 8 9 10 11 12 13 13 13 14 13 12 12 14 15 16 17 19 20 21 22 22 22 23 23 22 23 23 24
14 15 16 18 19 21 22 23 23 22 21 20 18 18 17 18 24 28 29 29 29 26 25 24 23 22 23 23 20 18 16 13 9 6 5 6 7 9 9 8 8 9 9 10 11 11 13 14 15 15 16 17 18 18 20 21 22 23 23 22 21 22 22
14 14 15 17 18 20 22 24 25 25 24 23 22 21 19 19 23 26 28 29 27 24 24 24 24 25 27 27 26 25 24 21 19 16 13 11 8 6 5 4 3 3 4 6 7 9 10 12 12 13 14 14 15 16 17 18 19 18 18 18 19 19 19
15 15 16 17 18 19 21 23 24 24 24 24 24 24 24 25 26 26 28 28 26 24 23 22 22 24 25 25 26 26 24 23 23 21 19 16 14 12 11 9 7 5 4 3 3 3 5 7 7 8 8 9 10 10 10 12 13 11 9 10 11 10 10
17 17 17 18 19 20 21 22 22 22 22 21 21 21 22 23 24 25 26 25 23 23 24 23 24 25 24 24 25 25 23 21 19 18 17 16 15 14 14 14 12 10 9 8 6 4 3 2 2 1 1 1 2 2 3 5 7 5 4 4 4 4 6
18 18 18 19 21 21 22 22 21 20 20 19 17 17 18 19 20 21 21 21 20 20 21 21 21 22 22 23 24 24 24 23 21 18 16 15 14 14 14 13 13 12 11 10 9 9 8 8 8 7 6 5 3 2 2 2 1 1 1 1 3 4 5
19 20 21 21 22 22 22 22 21 20 20 20 18 17 16 17 18 18 17 17 17 17 17 18 18 18 19 20 20 20 21 21 21 20 18 16 14 13 12 12 11 11 11 9 9 9 9 9 9 9 8 7 5 3 3 3 3 2 1 1 2 3 4
21 21 22 22 21 21 21 21 21 21 21 22 20 19 18 17 17 17 16 16 16 15 15 15 16 15 15 16 16 17 17 18 18 18 18 17 16 13 12 11 10 10 9 8 6 6 7 8 8 7 7 6 5 4 4 4 3 2 2 2 2 3 4
20 20 21 21 20 19 19 19 19 19 20 20 19 18 18 18 17 16 16 16 15 14 14 14 14 14 13 13 14 14 14 15 15 15 15 16 16 14 13 11 10 9 8 8 7 6 6 6 6 5 5 4 4 4 4 4 5 5 5 5 5 5 6
19 19 19 18 17 16 16 16 16 16 16 17 17 16 16 16 16 15 15 14 13 13 12 13 13 12 12 12 12 12 12 12 12 12 13 14 15 14 13 11 10 10 9 8 8 7 7 7 6 6 6 5 5 5 4 5 6 6 7 7 7 7 7
16 16 16 14 12 12 12 12 13 13 13 13 13 13 14 14 14 14 14 13 13 13 13 12 12 11 12 11 10 10 10 10 10 10 10 11 13 13 13 12 11 10 10 9 9 9 9 9 9 9 9 8 8 7 6 6 6 6 6 6 6 6 5
13 13 12 10 9 9 9 9 10 10 11 12 11 11 11 11 11 12 12 12 12 13 13 13 12 12 12 11 10 10 9 8 9 8 8 9 10 11 11 11 10 10 10 10 10 10 10 10 10 10 10 10 10 10 9 8 8 7 7 6 6 5 5
Wind_Direction
202 203 206 209 213 216 217 217 217 216 216 217 215 214 213 211 210 208 206 205 205 203 203 206 209 212 214 215 215 214 213 213 213 214 214 215 220 226 229 233 241 247 245 240 237 236 233 228 228 229 232 236 237 234 232 230 232 238 241 242 243 242 238
194 197 202 206 210 214 216 217 217 216 216 217 216 215 215 214 212 210 208 207 206 204 203 206 210 212 215 216 217 217 216 215 216 217 218 220 223 228 229 231 237 243 246 244 243 242 238 234 232 233 234 238 241 240 239 238 235 236 240 243 246 246 245
188 193 199 204 208 212 215 216 216 216 217 217 217 217 217 217 216 214 212 209 207 207 206 208 212 214 216 217 218 218 218 218 218 219 221 224 226 228 230 229 229 234 239 242 244 244 242 238 237 237 235 237 241 242 243 243 240 237 238 241 245 246 247
190 195 203 208 209 211 215 217 217 217 218 220 220 220 221 221 221 218 217 214 211 210 210 210 212 215 218 220 219 220 220 220 221 222 224 226 226 227 229 228 227 228 231 236 241 242 241 241 241 239 238 239 241 242 244 244 242 238 237 241 245 247 247
195 198 206 210 209 210 213 216 219 219 220 222 222 223 225 225 224 222 222 220 217 216 216 215 214 216 219 222 222 222 221 222 223 224 227 226 224 225 227 228 228 229 230 233 237 238 237 238 241 240 240 242 243 243 245 246 245 241 239 242 246 249 250
199 202 207 211 210 210 212 215 219 221 222 224 225 226 226 226 226 225 225 224 221 220 221 221 220 220 221 222 225 224 223 223 224 225 228 227 225 225 227 229 229 230 232 233 234 235 234 234 237 240 242 245 246 245 245 246 245 241 241 244 247 250 252
204 205 209 213 213 212 213 215 218 221 223 224 226 227 227 228 229 228 228 228 226 223 223 224 224 225 224 223 225 225 223 223 224 225 228 227 226 228 229 230 230 230 231 232 233 233 234 234 236 239 243 246 247 246 246 246 244 241 242 245 250 254 255
206 206 209 213 216 215 215 216 217 219 220 222 225 228 229 230 231 230 230 231 229 227 226 226 227 228 228 226 225 225 224 224 225 226 229 229 227 228 230 232 231 229 229 231 232 233 234 236 238 241 244 246 247 247 247 246 244 242 244 248 252 256 258
207 208 211 214 217 218 218 220 221 220 221 222 224 228 231 232 233 234 234 234 233 231 230 228 229 230 231 229 226 225 225 226 226 227 229 230 230 230 232 233 232 230 229 230 232 233 234 236 239 242 244 246 246 245 246 246 244 242 245 248 252 255 257
204 207 211 216 220 221 222 224 224 223 223 224 225 228 232 234 236 236 237 236 236 235 233 232 232 233 232 229 226 224 225 226 226 227 229 230 231 231 232 233 232 230 230 231 232 232 233 235 238 241 241 241 242 242 242 242 241 242 246 249 251 253 254
191 201 208 216 222 224 225 228 228 225 223 223 224 225 228 233 236 236 237 238 238 238 236 234 233 234 233 230 226 224 225 227 226 225 227 229 231 232 232 232 231 230 230 230 230 231 233 235 237 238 236 235 238 240 240 240 242 246 248 250 251 251 251
162 179 194 206 214 218 221 225 228 227 225 223 223 223 224 228 233 237 239 241 241 240 239 237 234 233 231 229 227 226 227 229 228 227 226 227 229 230 230 230 229 229 228 227 226 228 230 233 235 235 234 233 236 239 240 241 245 248 249 249 250 250 250
121 142 163 182 198 209 216 220 224 226 228 228 230 230 228 228 232 236 239 242 243 243 243 241 237 233 230 226 226 227 227 228 228 228 227 226 227 228 228 229 230 229 228 226 225 226 227 228 229 230 231 233 235 238 240 241 244 247 247 247 248 249 248
97 110 133 158 180 197 209 217 222 226 228 230 233 235 234 234 236 238 239 241 244 247 248 247 244 239 233 229 227 227 227 228 229 229 227 225 226 227 226 227 229 229 229 228 226 226 226 227 227 227 229 231 234 236 239 241 242 244 245 245 247 248 248
94 100 119 156 181 195 207 217 222 226 229 230 232 235 236 237 238 240 240 240 243 245 245 246 248 247 242 237 232 229 228 230 231 230 227 225 225 225 226 227 229 230 231 230 230 228 226 225 225 226 228 230 233 235 238 240 240 241 243 247 249 249 246
91 100 110 138 182 208 219 227 231 232 233 233 234 236 236 236 238 241 241 240 241 242 241 241 244 248 249 248 243 237 233 233 233 232 229 226 225 225 227 229 231 231 231 232 233 231 228 225 223 224 226 228 231 234 238 242 242 241 243 246 252 255 250
69 75 70 68 84 217 229 237 241 240 240 240 241 242 241 241 241 242 242 242 241 241 241 240 239 241 245 249 250 246 241 237 236 235 233 228 225 225 227 229 231 232 232 232 233 231 229 227 224 222 223 225 228 231 235 239 241 243 245 244 249 257 258
43 46 43 39 30 15 302 251 248 247 245 244 245 246 246 246 245 244 243 244 244 243 242 240 239 238 239 244 249 249 246 242 239 239 238 231 224 223 225 228 229 230 231 232 233 232 231 229 227 224 223 224 228 232 236 238 239 241 244 243 242 249 256
36 35 30 25 15 9 9 354 313 281 268 257 251 250 250 250 251 249 247 246 245 244 243 240 240 241 240 241 245 247 249 248 244 243 245 238 227 224 225 226 227 227 228 231 233 234 233 231 231 229 226 227 230 234 240 244 242 241 243 245 243 246 251
44 40 34 27 15 10 8 359 343 319 292 273 262 259 258 257 256 254 252 249 247 245 244 242 241 241 241 241 243 245 248 249 244 244 248 244 233 227 225 224 225 227 228 229 230 233 234 233 233 233 231 231 233 236 241 246 245 244 245 247 248 248 251
48 47 44 40 32 25 19 13 9 1 339 314 300 288 278 273 269 263 256 251 249 247 245 244 242 240 238 237 238 239 241 243 244 244 247 246 239 231 228 227 226 227 228 228 229 231 232 232 233 234 233 233 235 238 242 246 247 249 249 250 250 251 252
51 55 53 49 44 38 33 29 20 2 339 324 322 317 303 293 284 274 263 254 250 249 247 245 243 240 237 233 233 234 236 239 242 244 247 249 246 238 233 230 227 225 225 227 229 230 229 228 229 231 233 234 237 240 245 248 249 250 251 251 251 253 254
67 64 58 53 52 51 49 47 41 27 360 329 321 319 307 300 299 292 282 271 260 255 252 249 244 241 237 231 227 228 232 236 238 239 244 249 248 240 235 234 232 228 225 224 225 226 224 224 226 228 232 237 241 245 249 252 254 255 255 254 253 252 253
72 67 62 56 54 51 47 44 44 44 44 39 31 16 344 323 312 284 270 268 258 252 248 243 238 237 233 226 224 226 231 233 231 231 237 243 245 244 243 246 248 243 235 230 227 228 229 228 228 232 238 243 247 250 253 256 258 259 260 258 256 254 253
69 64 59 53 47 46 46 46 48 52 52 49 44 37 28 20 20 135 175 198 215 219 220 218 217 217 213 210 213 212 207 204 204 207 217 228 237 242 244 248 249 243 238 235 233 236 240 239 237 241 246 250 253 255 258 260 261 262 262 260 257 255 255
69 66 62 57 54 56 60 62 62 61 57 54 50 46 43 46 59 77 88 101 123 130 124 135 156 167 172 176 180 177 172 173 185 195 204 217 230 235 235 240 242 239 236 235 236 242 250 251 249 251 255 258 260 262 262 262 262 262 262 261 258 257 258
73 74 70 64 61 63 67 67 65 65 63 60 58 57 58 67 77 80 78 77 80 82 81 86 96 104 110 118 129 139 145 152 177 200 209 215 222 226 228 235 243 245 242 241 247 257 262 261 260 260 260 262 263 265 265 264 264 264 262 261 259 258 260
78 79 74 69 66 67 71 72 70 68 66 62 60 61 65 75 83 84 80 74 72 72 75 77 80 83 87 90 90 91 92 94 97 115 153 180 202 217 224 232 242 249 250 249 254 260 258 258 261 262 263 264 265 266 266 265 265 264 261 260 260 262 264
83 84 79 74 70 70 73 75 73 71 70 67 67 68 71 77 82 82 76 71 69 72 76 79 79 80 83 85 83 81 81 81 82 85 91 101 115 140 158 164 178 201 218 225 232 241 247 251 257 260 263 266 266 265 264 264 263 261 259 261 265 268 269
88 87 83 77 73 73 75 75 74 73 72 70 70 70 71 75 77 76 72 68 65 67 71 75 77 77 78 79 79 79 79 81 82 81 81 82 85 90 92 89 86 84 90 116 166 222 249 256 258 262 267 269 265 263 262 260 260 261 262 263 265 271 274
91 88 84 79 75 74 74 73 73 72 69 66 65 65 68 72 72 71 69 66 62 60 63 68 73 74 72 70 69 70 71 74 75 73 72 73 71 68 70 68 62 58 55 54 59 63 53 40 41 27 351 303 268 252 241 241 243 247 254 258 267 285 293
93 88 84 80 76 74 73 73 72 71 68 65 62 60 63 67 67 66 65 64 61 59 59 64 71 73 72 69 67 66 65 65 64 61 61 67 67 62 61 61 58 56 51 44 45 53 61 63 65 69 74 73 78 115 155 179 186 187 256 297 310 312 312
94 90 86 82 78 76 74 72 70 69 66 63 61 59 61 64 64 62 62 62 60 57 58 63 68 69 67 66 66 65 64 64 64 61 60 65 71 72 70 67 62 60 59 54 47 47 53 58 58 60 64 61 57 68 81 73 73 74 52 13 350 336 333
97 93 89 85 82 78 75 72 70 68 65 62 61 60 60 62 62 62 62 62 61 58 58 62 66 68 67 66 65 64 62 61 61 60 59 62 67 74 78 75 71 71 75 81 79 64 58 58 53 50 52 48 40 34 30 30 31 23 4 356 351 346 336
98 96 92 88 85 80 75 72 69 66 65 63 62 61 61 61 61 61 62 63 63 62 61 63 65 67 67 65 63 61 59 57 57 56 56 57 60 65 71 74 74 74 75 79 82 73 61 55 49 43 39 34 26 13 352 337 332 328 328 329 330 329 324
100 98 93 89 86 80 73 69 67 65 66 65 63 61 60 59 59 59 60 61 61 59 57 61 66 69 70 68 66 61 56 52 51 51 51 50 50 53 59 65 68 67 64 61 59 55 49 45 41 40 38 32 23 11 350 335 329 326 327 331 331 331 329
101 99 96 91 85 77 69 65 64 66 68 69 67 63 60 57 55 56 56 58 59 57 55 58 63 69 73 73 70 64 56 50 49 50 49 46 44 45 49 54 58 61 61 58 54 50 45 43 41 43 43 41 37 32 23 11 1 354 351 352 352 352 353
108 108 105 97 86 75 64 60 63 68 71 72 69 67 64 60 55 53 51 51 52 52 52 53 56 61 67 70 68 63 57 53 54 55 52 48 45 45 46 47 50 53 54 52 47 44 43 44 46 48 48 46 45 44 42 39 35 29 25 26 28 30 31